Weather History for Danville, IL

Change the Weather History Date:

Monday, September 23, 2013

  Actual Average (KLAF) Record (KLAF)
Temperature  
Mean Temperature 59 °F 63 °F  
Max Temperature 77 °F 75 °F 93 °F (2010)
Min Temperature 41 °F 51 °F 35 °F (2012)
Degree Days  
Heating Degree Days 6 4  
Month to date heating degree days 42  
Since 1 July heating degree days 48  
Cooling Degree Days 0 2  
Month to date cooling degree days 100  
Year to date cooling degree days 952  
Growing Degree Days 9 (Base 50)    
Moisture  
Dew Point 42 °F    
Average Humidity 60    
Maximum Humidity 83    
Minimum Humidity 33    
Precipitation  
Precipitation 0.00 in 0.08 in 0.97 in (1955)
Month to date precipitation 2.03  
Year to date precipitation 27.58  
Sea Level Pressure  
Sea Level Pressure 30.03 in    
Wind  
Wind Speed 5 mph (East)    
Max Wind Speed 8 mph    
Max Gust Speed 16 mph    
Visibility 9 miles    
Events      
T = Trace of Precipitation, MM = Missing Value Source: NWS Daily Summary

Daily Weather History Graph

Daily Weather History Graph

Search for Another Location

Airport:

Trip Planner

Search our weather history database for the weather conditions in past years. The results will help you decide how hot, cold, wet, or windy it might be!

Date:

Astronomy

Sep. 23, 2013 Rise Set
Actual Time 6:39 AM CDT 6:45 PM CDT
Civil Twilight 6:12 AM CDT 7:12 PM CDT
Nautical Twilight 5:40 AM CDT 7:44 PM CDT
Astronomical Twilight 5:08 AM CDT 8:16 PM CDT
Moon 9:16 PM CDT (9/23) 10:58 AM CDT (9/23)
Length of Visible Light 13h 00m
Length of Day
12h 06m
Waning Gibbous, 81% of the Moon is Illuminated
Sep 23
Waning Gibbous
Sep 26
Last Quarter
Oct 4
New
Oct 11
First Quarter
Oct 18
Full

Hourly Weather History & Observations

Time (CDT) Temp. Windchill Dew Point Humidity Pressure Visibility Wind Dir Wind Speed Gust Speed Precip Events Conditions
12:15 AM 47.5 °F - 40.6 °F 77% 30.02 in 10.0 mi ENE 5.8 mph - N/A   Clear
12:35 AM 46.8 °F - 40.1 °F 78% 30.01 in 10.0 mi ENE 5.8 mph - N/A   Clear
12:55 AM 46.4 °F 43.5 °F 39.9 °F 78% 30.01 in 10.0 mi ENE 5.8 mph - N/A   Clear
1:15 AM 45.9 °F 43.6 °F 39.6 °F 79% 30.02 in 10.0 mi ENE 4.6 mph - N/A   Clear
1:35 AM 45.5 °F 43.2 °F 39.2 °F 79% 30.02 in 10.0 mi ENE 4.6 mph - N/A   Clear
1:55 AM 45.0 °F 43.5 °F 38.5 °F 78% 30.02 in 10.0 mi NE 3.5 mph - N/A   Clear
2:15 AM 44.1 °F 42.5 °F 37.9 °F 79% 30.02 in 10.0 mi NE 3.5 mph - N/A   Clear
2:35 AM 43.7 °F 41.1 °F 37.4 °F 78% 30.02 in 10.0 mi ENE 4.6 mph - N/A   Clear
2:55 AM 44.1 °F 40.1 °F 37.9 °F 79% 30.02 in 10.0 mi ENE 6.9 mph - N/A   Clear
3:15 AM 44.4 °F 41.2 °F 38.3 °F 79% 30.01 in 10.0 mi ENE 5.8 mph - N/A   Clear
3:35 AM 44.2 °F 40.3 °F 38.7 °F 81% 30.01 in 10.0 mi ENE 6.9 mph - N/A   Clear
3:55 AM 43.7 °F 40.3 °F 38.3 °F 81% 30.01 in 10.0 mi ENE 5.8 mph - N/A   Clear
4:15 AM 43.5 °F 40.1 °F 38.3 °F 82% 30.02 in 10.0 mi East 5.8 mph - N/A   Clear
4:35 AM 43.7 °F 41.1 °F 38.3 °F 81% 30.02 in 10.0 mi East 4.6 mph - N/A   Clear
4:55 AM 43.3 °F 40.7 °F 37.9 °F 81% 30.02 in 10.0 mi East 4.6 mph - N/A   Clear
5:15 AM 43.2 °F 40.5 °F 37.8 °F 81% 30.03 in 10.0 mi East 4.6 mph - N/A   Clear
5:35 AM 42.8 °F 41.1 °F 37.4 °F 81% 30.03 in 10.0 mi ENE 3.5 mph - N/A   Clear
5:55 AM 42.3 °F 39.4 °F 36.9 °F 81% 30.04 in 10.0 mi ENE 4.6 mph - N/A   Clear
6:15 AM 42.8 °F 39.3 °F 37.4 °F 81% 30.04 in 10.0 mi ENE 5.8 mph - N/A   Clear
6:35 AM 42.4 °F 39.6 °F 37.0 °F 81% 30.05 in 10.0 mi East 4.6 mph - N/A   Clear
6:55 AM 41.9 °F 39.0 °F 36.7 °F 82% 30.06 in 10.0 mi East 4.6 mph - N/A   Clear
7:15 AM 42.8 °F 40.1 °F 37.4 °F 81% 30.06 in 10.0 mi ENE 4.6 mph - N/A   Clear
7:35 AM 44.1 °F - 39.2 °F 83% 30.07 in 10.0 mi Calm Calm - N/A   Clear
7:55 AM 46.9 °F - 41.9 °F 83% 30.07 in 10.0 mi East 3.5 mph - N/A   Clear
8:15 AM 48.4 °F - 43.0 °F 82% 30.07 in 10.0 mi East 3.5 mph - N/A   Clear
8:35 AM 52.0 °F - 46.6 °F 82% 30.07 in 10.0 mi ESE 3.5 mph - N/A   Clear
8:55 AM 54.3 °F - 48.7 °F 81% 30.07 in 10.0 mi SE 3.5 mph - N/A   Clear
9:15 AM 57.6 °F - 51.3 °F 79% 30.07 in 10.0 mi SSE 4.6 mph - N/A   Clear
9:35 AM 59.5 °F - 51.1 °F 74% 30.07 in 10.0 mi South 6.9 mph - N/A   Clear
9:55 AM 61.2 °F - 49.5 °F 65% 30.08 in 10.0 mi SSE 6.9 mph - N/A   Clear
10:15 AM 63.5 °F - 50.9 °F 63% 30.08 in 10.0 mi SE 5.8 mph - N/A   Clear
10:35 AM 65.7 °F - 53.1 °F 64% 30.07 in 10.0 mi South 5.8 mph - N/A   Clear
10:55 AM 67.1 °F - 48.4 °F 51% 30.07 in 10.0 mi South 5.8 mph - N/A   Clear
11:15 AM 68.5 °F - 48.7 °F 49% 30.07 in 10.0 mi SSE 5.8 mph - N/A   Clear
11:35 AM 70.2 °F - 51.6 °F 52% 30.07 in 7.0 mi SE 4.6 mph - N/A   Clear
11:55 AM 70.9 °F - 49.5 °F 47% 30.07 in 10.0 mi SSW 4.6 mph - N/A   Clear
12:15 PM 72.7 °F - 56.7 °F 57% 30.06 in 10.0 mi East 6.9 mph - N/A   Clear
12:35 PM 73.6 °F - 54.9 °F 52% 30.06 in 7.0 mi Calm Calm - N/A   Clear
12:55 PM 73.6 °F - 61.0 °F 65% 30.05 in 7.0 mi East 8.1 mph - N/A   Clear
1:15 PM 74.7 °F - 61.9 °F 64% 30.04 in 10.0 mi East 8.1 mph - N/A   Clear
1:35 PM 74.7 °F - 53.8 °F 48% 30.03 in 7.0 mi SE 5.8 mph - N/A   Clear
1:55 PM 75.7 °F - 52.0 °F 43% 30.03 in 7.0 mi SE 4.6 mph - N/A   Clear
2:15 PM 76.1 °F - 49.1 °F 39% 30.02 in 7.0 mi East 8.1 mph - N/A   Clear
2:35 PM 75.9 °F - 47.5 °F 36% 30.01 in 5.0 mi SE 3.5 mph - N/A   Haze
2:55 PM 76.5 °F - 48.0 °F 37% 30.00 in 4.0 mi ESE 8.1 mph - N/A   Haze
3:15 PM 77.0 °F - 47.3 °F 35% 30.00 in 7.0 mi East 5.8 mph - N/A   Clear
3:35 PM 76.8 °F - 46.2 °F 34% 30.00 in 7.0 mi ESE 6.9 mph 16.1 mph N/A   Clear
3:55 PM 76.5 °F - 45.9 °F 34% 30.00 in 7.0 mi SE 6.9 mph - N/A   Clear
4:15 PM 76.1 °F - 45.5 °F 34% 30.00 in 7.0 mi ESE 4.6 mph - N/A   Clear
4:35 PM 75.7 °F - 45.3 °F 34% 29.99 in 7.0 mi East 6.9 mph - N/A   Clear
4:55 PM 75.2 °F - 44.1 °F 33% 29.99 in 7.0 mi East 4.6 mph - N/A   Clear
5:15 PM 74.3 °F - 43.9 °F 34% 29.99 in 7.0 mi East 6.9 mph - N/A   Clear
5:35 PM 73.4 °F - 43.3 °F 34% 30.00 in 7.0 mi ESE 6.9 mph - N/A   Clear
5:55 PM 71.6 °F - 42.1 °F 34% 29.99 in 7.0 mi ESE 4.6 mph - N/A   Clear
6:15 PM 69.8 °F - 41.0 °F 35% 30.00 in 7.0 mi ESE 5.8 mph - N/A   Clear
6:35 PM 65.5 °F - 39.7 °F 39% 30.00 in 7.0 mi ESE 3.5 mph - N/A   Clear
6:55 PM 60.6 °F - 36.9 °F 41% 30.00 in 7.0 mi East 3.5 mph - N/A   Clear
7:15 PM 58.1 °F - 34.9 °F 42% 29.99 in 7.0 mi East 4.6 mph - N/A   Clear
7:35 PM 56.8 °F - 34.3 °F 43% 30.00 in 7.0 mi East 3.5 mph - N/A   Clear
7:55 PM 55.6 °F - 32.7 °F 42% 30.00 in 10.0 mi East 4.6 mph - N/A   Clear
8:15 PM 55.0 °F - 33.4 °F 44% 30.00 in 10.0 mi East 4.6 mph - N/A   Clear
8:35 PM 55.4 °F - 32.0 °F 41% 30.00 in 10.0 mi ESE 8.1 mph - N/A   Clear
8:55 PM 56.3 °F - 35.6 °F 46% 30.01 in 10.0 mi SE 5.8 mph - N/A   Clear
9:15 PM 53.8 °F - 34.9 °F 49% 30.01 in 10.0 mi ESE 4.6 mph - N/A   Clear
9:35 PM 52.0 °F - 34.5 °F 51% 30.01 in 10.0 mi East 4.6 mph - N/A   Clear
9:55 PM 51.6 °F - 30.4 °F 44% 30.01 in 10.0 mi East 4.6 mph - N/A   Clear
10:15 PM 51.3 °F - 31.1 °F 46% 30.00 in 10.0 mi East 4.6 mph - N/A   Clear
10:35 PM 50.5 °F - 32.0 °F 49% 30.01 in 10.0 mi East 3.5 mph - N/A   Clear
10:55 PM 49.5 °F - 32.2 °F 51% 30.00 in 10.0 mi East 3.5 mph - N/A   Clear
11:15 PM 49.1 °F - 33.8 °F 56% 30.01 in 10.0 mi ESE 4.6 mph - N/A   Clear
11:35 PM 48.2 °F - 35.6 °F 62% 30.01 in 10.0 mi ESE 4.6 mph - N/A   Clear
11:55 PM 47.7 °F - 35.6 °F 63% 30.00 in 10.0 mi ESE 4.6 mph - N/A   Clear